Location: Augustenthal
(51.7167°N, 10.2833°E)
Time: 20:43:43
(UTC+00:00)

ATLAS CENTAUR R/B - Pass Details

Date: 18 May 2021
Orbit: 472 x 671 km, 64.6° (Epoch: 13 June)

Event Time Altitude Azimuth Distance (km) Brightness Sun altitude
Rises 23:48:58 0° 269° (W) 2,557 4.6 -18.1°
Reaches altitude 10° 23:51:30 10° 287° (WNW) 1,702 3.9 -18.1°
Maximum altitude 23:54:23 20° 336° (NNW) 1,226 3.8 -18.0°
Drops below altitude 10° 23:57:23 10° 25° (NNE) 1,780 5.1 -17.9°
Sets 00:00:06 0° 43° (NE) 2,715 5.9 -17.8°
